Flag for Denmark Weather past 2 weeks in Esbjerg, Denmark

Now
37 °F

Overcast.


Feels Like: 34 °F
Forecast: 40 / 46 °F
Wind: 5 mph from Southwest

Location: Esbjerg Airport

Current Time: Feb 28, 2015 at 2:32:10 AM

Latest Report: Feb 28, 2015 at 1:50 AM


Visibility: N/A

Pressure: 30.01 "Hg

Humidity: 87%

Dew point: 34 °F

Location of EsbjergLocation

Historic Weather in Esbjerg — Graph

°F

Esbjerg temperature yesterday

Maximum temperature yesterday: 45 °F (at 12:50 PM)
Minimum temperature yesterday: 32 °F (at 9:20 PM)
Average temperature yesterday: 39 °F

Past Weeks' High & Low Weather Summary

 TemperatureHumidityPressure
High45 °F (Feb 17, 3:20 PM)100% (Feb 13, 1:20 AM)30.54 "Hg (Feb 13, 1:20 AM)
Low30 °F (Feb 17, 1:20 AM)66% (Feb 27, 4:20 PM)29.09 "Hg (Feb 23, 7:50 AM)
Average38 °F90%29.86 "Hg
* Reported Feb 13 1:20 AM — Feb 28 1:20 AM, Esbjerg, Weather by CustomWeather, © 2015

Note: Actual official high and low records may vary slightly from our data, if they occured in-between our weather recording intervals... More about our weather records

Advertising

Esbjerg weather history for previous 24 hours

 ConditionsComfort  
Time TempWeatherWind HumidityBarometerVisibility
1:20 AM
Sat, Feb 28
36 °FPassing clouds.5 mph93%30.01 "HgN/A
12:50 AM34 °FPassing clouds.5 mph100%30.01 "HgN/A
12:20 AM32 °FPassing clouds.5 mph93%30.01 "HgN/A
11:50 PM
Fri, Feb 27
34 °FPassing clouds.3 mph93%30.01 "HgN/A
11:20 PM34 °FPassing clouds.2 mph93%30.01 "HgN/A
10:50 PM34 °FPassing clouds.2 mph93%30.01 "HgN/A
10:20 PM32 °FChilly.1 mph100%30.01 "HgN/A
9:50 PM32 °FChilly.5 mph93%30.01 "HgN/A
9:20 PM32 °FChilly.3 mph93%30.01 "HgN/A
8:50 PM34 °FChilly.5 mph93%30.01 "HgN/A
8:20 PM34 °FChilly.3 mph93%30.01 "HgN/A
7:50 PM36 °FPassing clouds.5 mph93%30.01 "HgN/A
7:20 PM37 °FPassing clouds.9 mph87%29.98 "HgN/A
6:50 PM37 °FChilly.2 mph87%29.98 "HgN/A
6:20 PM37 °FChilly.6 mph87%29.98 "HgN/A
5:50 PM39 °FChilly.6 mph81%29.95 "HgN/A
5:20 PM41 °FQuite cool.9 mph76%29.95 "HgN/A
4:50 PM43 °FPassing clouds.12 mph71%29.95 "HgN/A
4:20 PM45 °FScattered clouds.12 mph66%29.95 "HgN/A
3:50 PM45 °FPartly sunny.10 mph71%29.92 "HgN/A
3:20 PM43 °FPassing clouds.12 mph76%29.92 "HgN/A
2:50 PM43 °FPartly sunny.12 mph76%29.92 "HgN/A
2:20 PM43 °FPartly sunny.12 mph76%29.92 "HgN/A
1:50 PM45 °FPassing clouds.12 mph71%29.89 "HgN/A
1:20 PM43 °FPartly sunny.12 mph81%29.89 "HgN/A
12:50 PM45 °FBroken clouds.10 mph76%29.89 "HgN/A
12:20 PM43 °FPartly sunny.10 mph87%29.89 "HgN/A
11:50 AM43 °FPartly sunny.9 mph87%29.89 "HgN/A
11:20 AM43 °FPartly sunny.9 mph87%29.86 "HgN/A
10:50 AM43 °FPassing clouds.7 mph93%29.86 "HgN/A
10:20 AM41 °FPassing clouds.7 mph93%29.86 "HgN/A
9:50 AM41 °FPassing clouds.7 mph93%29.86 "Hg6 mi
9:20 AM39 °FPartly sunny.5 mph100%29.83 "Hg5 mi
8:50 AM39 °FPartly sunny.6 mph100%29.83 "Hg4 mi
8:20 AM39 °FBroken clouds.6 mph93%29.83 "HgN/A
7:50 AM37 °FBroken clouds.6 mph100%29.80 "HgN/A
7:20 AM39 °FOvercast.7 mph93%29.80 "HgN/A
6:50 AM39 °FPassing clouds.6 mph93%29.80 "HgN/A
6:20 AM39 °FPassing clouds.5 mph93%29.77 "HgN/A
5:20 AM39 °FPartly cloudy.5 mph100%29.77 "HgN/A
4:20 AM39 °FPassing clouds.5 mph100%29.74 "Hg3 mi
3:50 AM41 °FLight rain. Fog.2 mph93%29.74 "Hg2 mi
3:20 AM39 °FLight rain. Fog.2 mph100%29.74 "Hg1 mi
2:50 AM39 °FLight rain. Fog.5 mph100%29.74 "Hg2 mi
2:20 AM41 °FLight rain. Fog.8 mph93%29.74 "Hg2 mi
Weather by CustomWeather, © 2015

See weather overviewHow to use our weather pages